Tracking 19288 objects as of 20-Nov-2018
HD Live streaming from Space Station
objects crossing your sky now

HETE 2

Track HETE 2 now!
10-day predictions
HETE 2 is classified as:


NORAD ID: 26561
Int'l Code: 2000-061A
Perigee: 537.4 km
Apogee: 562.8 km
Inclination: 1.9 °
Period: 95.5 minutes
Semi major axis: 6921 km
RCS: 0.631 m2 (medium)
Launch date: October 9, 2000
Source: United States (US)
Launch site: Kwajalein (KWAJ)

Designed to detect and localize gamma-ray bursts.
aabbcc
Your satellite tracking list
Your tracking list is empty




NASA's NSSDC Master Catalog

Two Line Element Set (TLE):
1 26561U 00061A   18323.47745879 +.00001377 +00000-0 +30406-4 0  9990
2 26561 001.9489 097.2951 0018373 232.8773 126.9589 15.07789051993521
Source of the keplerian elements: AFSPC